TimeAKDT,TemperatureF,Dew PointF,Humidity,Sea Level PressureIn,VisibilityMPH,Wind Direction,Wind SpeedMPH,Gust SpeedMPH,PrecipitationIn,Events,Conditions,WindDirDegrees,DateUTC
12:16 AM,55.4,46.4,72,29.64,10.0,SW,3.5,-,N/A,,Overcast,220,2013-07-03 08:16:00
12:36 AM,55.4,44.6,67,29.65,10.0,SW,5.8,-,N/A,,Overcast,230,2013-07-03 08:36:00
12:56 AM,55.4,44.6,67,29.66,10.0,WSW,3.5,-,N/A,,Overcast,240,2013-07-03 08:56:00
1:16 AM,55.4,44.6,67,29.67,10.0,WSW,3.5,-,N/A,,Overcast,240,2013-07-03 09:16:00
1:36 AM,53.6,44.6,72,29.67,10.0,SSW,4.6,-,N/A,,Overcast,210,2013-07-03 09:36:00
1:56 AM,53.6,44.6,72,29.68,10.0,Calm,Calm,-,N/A,,Overcast,0,2013-07-03 09:56:00
2:16 AM,51.8,44.6,76,29.69,10.0,Calm,Calm,-,N/A,,Overcast,0,2013-07-03 10:16:00
2:36 AM,51.8,44.6,76,29.69,10.0,Calm,Calm,-,N/A,,Overcast,0,2013-07-03 10:36:00
2:56 AM,51.8,44.6,76,29.69,10.0,Calm,Calm,-,N/A,,Overcast,0,2013-07-03 10:56:00
3:16 AM,51.8,44.6,76,29.70,10.0,Calm,Calm,-,N/A,,Overcast,0,2013-07-03 11:16:00
3:36 AM,51.8,44.6,76,29.70,10.0,Calm,Calm,-,N/A,,Overcast,0,2013-07-03 11:36:00
3:56 AM,51.8,44.6,76,29.70,10.0,Calm,Calm,-,N/A,,Overcast,0,2013-07-03 11:56:00
4:16 AM,50.0,44.6,82,29.71,10.0,Calm,Calm,-,N/A,,Overcast,0,2013-07-03 12:16:00
4:36 AM,50.0,44.6,82,29.71,10.0,Calm,Calm,-,N/A,,Overcast,0,2013-07-03 12:36:00
4:56 AM,51.8,44.6,76,29.71,10.0,Calm,Calm,-,N/A,,Overcast,0,2013-07-03 12:56:00
5:16 AM,51.8,44.6,76,29.71,10.0,ENE,3.5,-,N/A,,Overcast,70,2013-07-03 13:16:00
5:36 AM,51.8,44.6,76,29.71,10.0,East,3.5,-,N/A,,Overcast,80,2013-07-03 13:36:00
5:56 AM,51.8,44.6,76,29.72,10.0,Calm,Calm,-,N/A,,Overcast,0,2013-07-03 13:56:00
6:16 AM,51.8,44.6,76,29.72,10.0,Calm,Calm,-,N/A,,Overcast,0,2013-07-03 14:16:00
6:36 AM,51.8,44.6,76,29.72,10.0,Calm,Calm,-,N/A,,Overcast,0,2013-07-03 14:36:00
6:56 AM,50.0,44.6,82,29.73,10.0,SSE,3.5,-,N/A,,Overcast,150,2013-07-03 14:56:00
7:16 AM,50.0,44.6,82,29.73,10.0,SE,4.6,-,N/A,,Overcast,130,2013-07-03 15:16:00
7:36 AM,50.0,44.6,82,29.73,10.0,SE,4.6,-,N/A,,Overcast,130,2013-07-03 15:36:00
7:56 AM,50.0,44.6,82,29.73,10.0,SE,4.6,-,N/A,,Overcast,130,2013-07-03 15:56:00
8:16 AM,51.8,46.4,82,29.74,10.0,ESE,6.9,-,N/A,,Overcast,120,2013-07-03 16:16:00
8:36 AM,51.8,46.4,82,29.74,10.0,SE,3.5,-,N/A,,Overcast,130,2013-07-03 16:36:00
8:56 AM,51.8,46.4,82,29.74,10.0,SE,5.8,-,N/A,,Overcast,130,2013-07-03 16:56:00
9:16 AM,51.8,46.4,82,29.75,10.0,SE,8.1,-,N/A,,Overcast,130,2013-07-03 17:16:00
9:36 AM,51.8,46.4,82,29.75,10.0,SE,4.6,-,N/A,,Overcast,130,2013-07-03 17:36:00
9:56 AM,51.8,46.4,82,29.75,10.0,SE,5.8,16.1,N/A,,Overcast,140,2013-07-03 17:56:00
10:16 AM,51.8,46.4,82,29.75,10.0,SE,10.4,-,N/A,,Overcast,140,2013-07-03 18:16:00
10:36 AM,51.8,46.4,82,29.76,10.0,SE,8.1,-,N/A,,Overcast,140,2013-07-03 18:36:00
10:56 AM,51.8,46.4,82,29.76,10.0,SE,6.9,-,N/A,,Overcast,140,2013-07-03 18:56:00
11:16 AM,53.6,46.4,77,29.76,10.0,SE,5.8,-,N/A,,Overcast,140,2013-07-03 19:16:00
11:36 AM,51.8,46.4,82,29.76,10.0,SE,8.1,-,N/A,,Overcast,130,2013-07-03 19:36:00
11:56 AM,51.8,46.4,82,29.77,10.0,SSE,4.6,-,0.01,,Overcast,160,2013-07-03 19:56:00
12:16 PM,48.2,46.4,93,29.78,10.0,South,3.5,-,0.04,,Overcast,190,2013-07-03 20:16:00
12:36 PM,51.8,48.2,88,29.79,10.0,South,5.8,-,0.04,,Overcast,190,2013-07-03 20:36:00
12:56 PM,51.8,46.4,82,29.79,10.0,SSW,4.6,-,0.04,,Overcast,200,2013-07-03 20:56:00
1:16 PM,53.6,46.4,77,29.79,10.0,South,6.9,-,N/A,,Overcast,180,2013-07-03 21:16:00
1:36 PM,53.6,44.6,72,29.80,10.0,South,8.1,17.3,N/A,,Overcast,190,2013-07-03 21:36:00
1:56 PM,53.6,44.6,72,29.80,10.0,South,5.8,16.1,N/A,,Overcast,170,2013-07-03 21:56:00
2:16 PM,55.4,42.8,63,29.80,10.0,South,6.9,-,N/A,,Overcast,170,2013-07-03 22:16:00
2:36 PM,55.4,42.8,63,29.80,10.0,SSE,9.2,19.6,N/A,,Overcast,150,2013-07-03 22:36:00
2:56 PM,55.4,42.8,63,29.80,10.0,SSE,6.9,-,N/A,,Overcast,160,2013-07-03 22:56:00
3:16 PM,57.2,41.0,55,29.80,10.0,South,8.1,19.6,N/A,,Mostly Cloudy,180,2013-07-03 23:16:00
3:36 PM,60.8,42.8,52,29.80,10.0,South,11.5,18.4,N/A,,Scattered Clouds,180,2013-07-03 23:36:00
3:56 PM,57.2,41.0,55,29.80,10.0,SSE,8.1,-,N/A,,Mostly Cloudy,150,2013-07-03 23:56:00
4:16 PM,57.2,41.0,55,29.80,10.0,South,12.7,17.3,N/A,,Mostly Cloudy,190,2013-07-04 00:16:00
4:36 PM,57.2,39.2,51,29.80,10.0,South,8.1,17.3,N/A,,Overcast,180,2013-07-04 00:36:00
4:56 PM,57.2,41.0,55,29.80,10.0,South,9.2,-,N/A,,Mostly Cloudy,180,2013-07-04 00:56:00
5:16 PM,57.2,41.0,55,29.80,10.0,South,5.8,-,N/A,,Overcast,170,2013-07-04 01:16:00
5:36 PM,57.2,42.8,59,29.81,10.0,South,6.9,-,N/A,,Overcast,180,2013-07-04 01:36:00
5:56 PM,53.6,44.6,72,29.81,9.0,Calm,Calm,-,0.01,,Overcast,0,2013-07-04 01:56:00
6:16 PM,53.6,44.6,72,29.81,10.0,Calm,Calm,-,0.01,,Overcast,0,2013-07-04 02:16:00
6:36 PM,53.6,46.4,77,29.81,10.0,Calm,Calm,-,0.01,,Overcast,0,2013-07-04 02:36:00
6:56 PM,55.4,46.4,72,29.80,10.0,South,3.5,-,0.01,,Overcast,170,2013-07-04 02:56:00
7:16 PM,55.4,44.6,67,29.81,10.0,South,6.9,-,N/A,,Overcast,180,2013-07-04 03:16:00
7:36 PM,55.4,42.8,63,29.81,10.0,South,6.9,-,N/A,,Overcast,170,2013-07-04 03:36:00
7:56 PM,55.4,42.8,63,29.81,10.0,SSE,8.1,-,N/A,,Overcast,160,2013-07-04 03:56:00
8:16 PM,55.4,42.8,63,29.81,10.0,SSE,8.1,-,N/A,,Overcast,160,2013-07-04 04:16:00
8:36 PM,55.4,42.8,63,29.81,10.0,SSE,4.6,-,N/A,,Overcast,160,2013-07-04 04:36:00
8:56 PM,55.4,42.8,63,29.82,10.0,South,5.8,-,N/A,,Overcast,170,2013-07-04 04:56:00
9:16 PM,55.4,42.8,63,29.82,10.0,South,3.5,-,N/A,,Overcast,180,2013-07-04 05:16:00
9:36 PM,55.4,42.8,63,29.82,10.0,South,3.5,-,N/A,,Overcast,180,2013-07-04 05:36:00
9:56 PM,55.4,42.8,63,29.82,10.0,South,3.5,-,N/A,,Overcast,180,2013-07-04 05:56:00
10:16 PM,55.4,42.8,63,29.82,10.0,South,4.6,-,N/A,,Overcast,170,2013-07-04 06:16:00
10:36 PM,53.6,42.8,67,29.83,10.0,Calm,Calm,-,N/A,,Overcast,0,2013-07-04 06:36:00
10:56 PM,53.6,42.8,67,29.83,10.0,Calm,Calm,-,N/A,,Overcast,0,2013-07-04 06:56:00
11:16 PM,53.6,42.8,67,29.83,10.0,Calm,Calm,-,N/A,,Overcast,0,2013-07-04 07:16:00
11:36 PM,53.6,42.8,67,29.83,10.0,Calm,Calm,-,N/A,,Overcast,0,2013-07-04 07:36:00
11:56 PM,53.6,42.8,67,29.83,10.0,SSE,3.5,-,N/A,,Overcast,160,2013-07-04 07:56:00